Project,Study,Ord_Occ,Event_Num,Date_Time_UTC,Date_Time_PST,Lat_Dec,Lon_Dec,Sta_ID,Line,Sta,Depth,Pressure,Temp0,Temp1,Salt0,CorrSalt0,Salt1,CorrSalt1,O2ml/L,AveCorrO2ml/L,StaCorrO2ml/L,FluorV,AveEstChl,StaEstChl,ISUSV,AveEstNO3,StaEstNO3,SigThetaTS0,SigThetaTS1,BAT,XMiss,SPAR,PAR,BTL_Depth,BTL_Temp,BTL_Salt,BTL_O2ml/L,BTL_Chl,BTL_Pha,BTL_NO3
CalCOFI,0701JD,042,418,24-Jan-2007 3:11:24 AM,23-Jan-2007 7:11:24 PM,33.82598,-118.63600,086.7 035.0,086.7,035.0,513.000,517.325,6.5864,6.5867,34.3207,34.3194,34.3178,34.3179,0.31854,0.35,0.40,0.0255,,,1.6636,38.34,38.084,26.9460,26.9436,0.4331,89.7385,6.4723e+00,9.9990e+03,514,6.58 ,34.318,  .33,,,37.8
CalCOFI,0701JD,042,418,24-Jan-2007 3:11:37 AM,23-Jan-2007 7:11:37 PM,33.82598,-118.63600,086.7 035.0,086.7,035.0,512.000,516.315,6.5889,6.5889,34.3206,34.3193,34.3177,34.3178,0.31759,0.35,0.40,-9.990e-29,,,1.6417,37.70,37.413,26.9456,26.9433,0.4333,89.7338,6.5723e+00,9.9990e+03,,,,,,,
CalCOFI,0701JD,042,418,24-Jan-2007 3:11:39 AM,23-Jan-2007 7:11:39 PM,33.82598,-118.63600,086.7 035.0,086.7,035.0,511.000,515.305,6.5920,6.5919,34.3204,34.3191,34.3176,34.3177,0.31761,0.35,0.40,-9.990e-29,,,1.6626,38.31,38.054,26.9450,26.9428,0.4332,89.7356,6.3648e+00,9.9990e+03,,,,,,,
CalCOFI,0701JD,042,418,24-Jan-2007 3:11:41 AM,23-Jan-2007 7:11:41 PM,33.82598,-118.63600,086.7 035.0,086.7,035.0,510.000,514.296,6.5950,6.5955,34.3203,34.3190,34.3176,34.3177,0.31772,0.35,0.40,0.0252,,,1.6493,37.92,37.646,26.9446,26.9423,0.4335,89.7302,6.1874e+00,9.9990e+03,,,,,,,
CalCOFI,0701JD,042,418,24-Jan-2007 3:11:42 AM,23-Jan-2007 7:11:42 PM,33.82598,-118.63605,086.7 035.0,086.7,035.0,509.000,513.286,6.5973,6.5979,34.3201,34.3188,34.3175,34.3176,0.31767,0.35,0.40,0.0250,,,1.6444,37.78,37.495,26.9441,26.9419,0.4316,89.7735,6.4481e+00,9.9990e+03,,,,,,,
CalCOFI,0701JD,042,418,24-Jan-2007 3:11:43 AM,23-Jan-2007 7:11:43 PM,33.82598,-118.63618,086.7 035.0,086.7,035.0,508.000,512.276,6.5975,6.5979,34.3202,34.3189,34.3175,34.3176,0.31864,0.35,0.40,0.0253,,,1.6460,37.83,37.544,26.9441,26.9419,0.4331,89.7395,6.4721e+00,9.9990e+03,,,,,,,
CalCOFI,0701JD,042,418,24-Jan-2007 3:11:44 AM,23-Jan-2007 7:11:44 PM,33.82598,-118.63618,086.7 035.0,086.7,035.0,507.000,511.267,6.5976,6.5980,34.3200,34.3187,34.3174,34.3175,0.31819,0.35,0.40,0.0259,,,1.6370,37.56,37.268,26.9439,26.9418,0.4337,89.7257,6.6176e+00,9.9990e+03,,,,,,,
CalCOFI,0701JD,042,418,24-Jan-2007 3:11:45 AM,23-Jan-2007 7:11:45 PM,33.82614,-118.63618,086.7 035.0,086.7,035.0,506.000,510.257,6.5967,6.5973,34.3197,34.3184,34.3172,34.3173,0.31941,0.36,0.40,0.0254,,,1.6442,37.77,37.489,26.9438,26.9417,0.4301,89.8060,6.5820e+00,9.9990e+03,,,,,,,
CalCOFI,0701JD,042,418,24-Jan-2007 3:11:46 AM,23-Jan-2007 7:11:46 PM,33.82616,-118.63618,086.7 035.0,086.7,035.0,505.000,509.247,6.5964,6.5968,34.3195,34.3182,34.3169,34.3170,0.32045,0.36,0.40,0.0250,,,1.6603,38.25,37.983,26.9436,26.9416,0.4309,89.7892,6.4274e+00,9.9990e+03,,,,,,,
CalCOFI,0701JD,042,418,24-Jan-2007 3:11:47 AM,23-Jan-2007 7:11:47 PM,33.82616,-118.63618,086.7 035.0,086.7,035.0,504.000,508.238,6.6054,6.6059,34.3188,34.3175,34.3158,34.3159,0.32034,0.36,0.40,0.0255,,,1.6660,38.41,38.158,26.9419,26.9394,0.4286,89.8402,6.5521e+00,9.9990e+03,,,,,,,
CalCOFI,0701JD,042,418,24-Jan-2007 3:11:49 AM,23-Jan-2007 7:11:49 PM,33.82616,-118.63618,086.7 035.0,086.7,035.0,503.000,507.228,6.6133,6.6139,34.3184,34.3171,34.3154,34.3155,0.32219,0.36,0.40,0.0253,,,1.6498,37.94,37.661,26.9405,26.9381,0.4266,89.8841,6.5289e+00,9.9990e+03,,,,,,,
CalCOFI,0701JD,042,418,24-Jan-2007 3:11:51 AM,23-Jan-2007 7:11:51 PM,33.82616,-118.63618,086.7 035.0,086.7,035.0,502.000,506.218,6.6231,6.6214,34.3181,34.3168,34.3154,34.3155,0.32392,0.36,0.40,0.0251,,,1.6361,37.54,37.241,26.9389,26.9370,0.4261,89.8972,6.4082e+00,9.9990e+03,,,,,,,
CalCOFI,0701JD,042,418,24-Jan-2007 3:11:52 AM,23-Jan-2007 7:11:52 PM,33.82616,-118.63618,086.7 035.0,086.7,035.0,501.000,505.209,6.6338,6.6342,34.3179,34.3166,34.3150,34.3151,0.32488,0.36,0.41,0.0251,,,1.6617,38.29,38.026,26.9373,26.9351,0.4252,89.9175,6.2727e+00,9.9990e+03,,,,,,,
CalCOFI,0701JD,042,418,24-Jan-2007 3:11:53 AM,23-Jan-2007 7:11:53 PM,33.82616,-118.63618,086.7 035.0,086.7,035.0,500.000,504.199,6.6566,6.6574,34.3175,34.3162,34.3145,34.3146,0.32612,0.36,0.41,0.0254,,,1.6476,37.87,37.593,26.9340,26.9315,0.4233,89.9596,6.7261e+00,9.9990e+03,,,,,,,
CalCOFI,0701JD,042,418,24-Jan-2007 3:11:54 AM,23-Jan-2007 7:11:54 PM,33.82616,-118.63618,086.7 035.0,086.7,035.0,499.000,503.189,6.6682,6.6698,34.3173,34.3160,34.3144,34.3145,0.32668,0.36,0.41,0.0257,,,1.6381,37.59,37.302,26.9323,26.9298,0.4248,89.9264,6.1708e+00,9.9990e+03,,,,,,,
CalCOFI,0701JD,042,418,24-Jan-2007 3:11:55 AM,23-Jan-2007 7:11:55 PM,33.82616,-118.63618,086.7 035.0,086.7,035.0,498.000,502.180,6.6803,6.6806,34.3174,34.3161,34.3147,34.3148,0.32772,0.37,0.41,0.0257,,,1.6291,37.33,37.026,26.9307,26.9286,0.4239,89.9447,6.8996e+00,9.9990e+03,,,,,,,
CalCOFI,0701JD,042,418,24-Jan-2007 3:11:56 AM,23-Jan-2007 7:11:56 PM,33.82616,-118.63618,086.7 035.0,086.7,035.0,497.000,501.170,6.6860,6.6872,34.3175,34.3162,34.3147,34.3148,0.32733,0.36,0.41,0.0249,,,1.6152,36.92,36.600,26.9300,26.9277,0.4234,89.9571,6.7173e+00,9.9990e+03,,,,,,,
CalCOFI,0701JD,042,418,24-Jan-2007 3:11:57 AM,23-Jan-2007 7:11:57 PM,33.82616,-118.63618,086.7 035.0,086.7,035.0,496.000,500.161,6.6959,6.6963,34.3171,34.3158,34.3145,34.3146,-9.990e-29,,0.41,0.0250,,,1.6320,37.41,37.115,26.9284,26.9263,0.4220,89.9889,6.5951e+00,9.9990e+03,,,,,,,
CalCOFI,0701JD,042,418,24-Jan-2007 3:11:58 AM,23-Jan-2007 7:11:58 PM,33.82616,-118.63618,086.7 035.0,086.7,035.0,495.000,499.151,6.6973,6.6976,34.3170,34.3157,34.3144,34.3145,-9.990e-29,,0.41,0.0257,,,1.6578,38.17,37.906,26.9281,26.9260,0.4221,89.9866,6.6040e+00,9.9990e+03,,,,,,,
CalCOFI,0701JD,042,418,24-Jan-2007 3:11:59 AM,23-Jan-2007 7:11:59 PM,33.82616,-118.63618,086.7 035.0,086.7,035.0,494.000,498.141,6.7000,6.7004,34.3169,34.3156,34.3145,34.3146,-9.990e-29,,0.41,0.0249,,,1.6457,37.82,37.535,26.9277,26.9257,0.4225,89.9760,6.5576e+00,9.9990e+03,,,,,,,
CalCOFI,0701JD,042,418,24-Jan-2007 3:12:01 AM,23-Jan-2007 7:12:01 PM,33.82616,-118.63618,086.7 035.0,086.7,035.0,493.000,497.132,6.7010,6.7015,34.3167,34.3154,34.3142,34.3143,0.32924,0.37,0.41,0.0257,,,1.6330,37.44,37.146,26.9273,26.9253,0.4223,89.9811,6.4124e+00,9.9990e+03,,,,,,,
CalCOFI,0701JD,042,418,24-Jan-2007 3:12:02 AM,23-Jan-2007 7:12:02 PM,33.82616,-118.63618,086.7 035.0,086.7,035.0,492.000,496.122,6.7055,6.7060,34.3169,34.3156,34.3139,34.3140,0.33211,0.37,0.41,0.0258,,,1.6368,37.56,37.262,26.9269,26.9245,0.4216,89.9984,6.3991e+00,9.9990e+03,,,,,,,
CalCOFI,0701JD,042,418,24-Jan-2007 3:12:03 AM,23-Jan-2007 7:12:03 PM,33.82616,-118.63618,086.7 035.0,086.7,035.0,491.000,495.113,6.7358,6.7390,34.3166,34.3153,34.3131,34.3132,0.33522,0.37,0.42,0.0254,,,1.6380,37.59,37.299,26.9226,26.9194,0.4225,89.9763,6.0772e+00,9.9990e+03,,,,,,,
CalCOFI,0701JD,042,418,24-Jan-2007 3:12:04 AM,23-Jan-2007 7:12:04 PM,33.82616,-118.63618,086.7 035.0,086.7,035.0,490.000,494.103,6.7614,6.7647,34.3158,34.3145,34.3127,34.3128,0.33787,0.38,0.42,0.0251,,,1.6317,37.41,37.106,26.9185,26.9156,0.4246,89.9296,6.2848e+00,9.9990e+03,,,,,,,
CalCOFI,0701JD,042,418,24-Jan-2007 3:12:05 AM,23-Jan-2007 7:12:05 PM,33.82616,-118.63618,086.7 035.0,086.7,035.0,489.000,493.094,6.7845,6.7865,34.3151,34.3138,34.3123,34.3124,0.33915,0.38,0.42,0.0254,,,1.6253,37.22,36.909,26.9148,26.9124,0.4276,89.8620,7.1155e+00,9.9990e+03,,,,,,,
CalCOFI,0701JD,042,418,24-Jan-2007 3:12:06 AM,23-Jan-2007 7:12:06 PM,33.82616,-118.63618,086.7 035.0,086.7,035.0,488.000,492.084,6.7874,6.7880,34.3147,34.3134,34.3125,34.3126,0.34013,0.38,0.42,0.0256,,,1.6515,37.99,37.713,26.9141,26.9123,0.4293,89.8243,7.0068e+00,9.9990e+03,,,,,,,
CalCOFI,0701JD,042,418,24-Jan-2007 3:12:06 AM,23-Jan-2007 7:12:06 PM,33.82616,-118.63618,086.7 035.0,086.7,035.0,487.000,491.074,6.7910,6.7913,34.3150,34.3137,34.3126,34.3127,0.34242,0.38,0.43,0.0254,,,1.6508,37.97,37.692,26.9139,26.9119,0.4300,89.8089,6.5019e+00,9.9990e+03,,,,,,,
CalCOFI,0701JD,042,418,24-Jan-2007 3:12:07 AM,23-Jan-2007 7:12:07 PM,33.82616,-118.63618,086.7 035.0,086.7,035.0,486.000,490.065,6.7930,6.7933,34.3149,34.3136,34.3126,34.3127,0.34199,0.38,0.43,0.0257,,,1.6502,37.95,37.673,26.9135,26.9117,0.4299,89.8106,6.1848e+00,9.9990e+03,,,,,,,
CalCOFI,0701JD,042,418,24-Jan-2007 3:12:08 AM,23-Jan-2007 7:12:08 PM,33.82616,-118.63618,086.7 035.0,086.7,035.0,485.000,489.055,6.8003,6.8002,34.3151,34.3138,34.3126,34.3127,0.34266,0.38,0.43,0.0255,,,1.6597,38.23,37.965,26.9127,26.9108,0.4299,89.8103,6.3713e+00,9.9990e+03,,,,,,,
CalCOFI,0701JD,042,418,24-Jan-2007 3:12:10 AM,23-Jan-2007 7:12:10 PM,33.82616,-118.63618,086.7 035.0,086.7,035.0,484.000,488.046,6.8042,6.8049,34.3152,34.3139,34.3127,34.3128,0.34266,0.38,0.43,0.0261,,,1.6426,37.73,37.440,26.9123,26.9102,0.4298,89.8128,6.3988e+00,9.9990e+03,,,,,,,
CalCOFI,0701JD,042,418,24-Jan-2007 3:12:12 AM,23-Jan-2007 7:12:12 PM,33.82616,-118.63618,086.7 035.0,086.7,035.0,483.000,487.036,6.8105,6.8109,34.3151,34.3138,34.3126,34.3127,0.34292,0.38,0.43,0.0253,,,1.6398,37.64,37.354,26.9113,26.9092,0.4291,89.8288,6.7666e+00,9.9990e+03,,,,,,,
CalCOFI,0701JD,042,418,24-Jan-2007 3:12:13 AM,23-Jan-2007 7:12:13 PM,33.82616,-118.63618,086.7 035.0,086.7,035.0,482.000,486.027,6.8129,6.8137,34.3151,34.3138,34.3127,34.3128,0.34431,0.39,0.43,0.0259,,,1.6399,37.65,37.357,26.9109,26.9089,0.4289,89.8334,6.5073e+00,9.9990e+03,,,,,,,
CalCOFI,0701JD,042,418,24-Jan-2007 3:12:14 AM,23-Jan-2007 7:12:14 PM,33.82616,-118.63618,086.7 035.0,086.7,035.0,481.000,485.017,6.8214,6.8218,34.3151,34.3138,34.3127,34.3128,0.34502,0.39,0.43,0.0250,,,1.6435,37.75,37.468,26.9098,26.9078,0.4301,89.8074,5.9535e+00,9.9990e+03,,,,,,,
CalCOFI,0701JD,042,418,24-Jan-2007 3:12:14 AM,23-Jan-2007 7:12:14 PM,33.82616,-118.63618,086.7 035.0,086.7,035.0,480.000,484.008,6.8340,6.8349,34.3155,34.3142,34.3129,34.3130,0.34640,0.39,0.43,0.0247,,,1.6204,37.07,36.759,26.9084,26.9062,0.4312,89.7825,6.1859e+00,9.9990e+03,,,,,,,
CalCOFI,0701JD,042,418,24-Jan-2007 3:12:15 AM,23-Jan-2007 7:12:15 PM,33.82616,-118.63618,086.7 035.0,086.7,035.0,479.000,482.998,6.8514,6.8520,34.3151,34.3138,34.3125,34.3126,0.34794,0.39,0.43,0.0247,,,1.6056,36.64,36.305,26.9058,26.9036,0.4321,89.7616,6.5096e+00,9.9990e+03,,,,,,,
CalCOFI,0701JD,042,418,24-Jan-2007 3:12:16 AM,23-Jan-2007 7:12:16 PM,33.82616,-118.63618,086.7 035.0,086.7,035.0,478.000,481.989,6.8675,6.8687,34.3147,34.3134,34.3121,34.3122,0.34925,0.39,0.44,0.0255,,,1.5960,36.36,36.011,26.9032,26.9010,0.4338,89.7234,7.0380e+00,9.9990e+03,,,,,,,
CalCOFI,0701JD,042,418,24-Jan-2007 3:12:17 AM,23-Jan-2007 7:12:17 PM,33.82616,-118.63618,086.7 035.0,086.7,035.0,477.000,480.979,6.8831,6.8838,34.3142,34.3129,34.3118,34.3119,0.34951,0.39,0.44,0.0254,,,1.6201,37.07,36.750,26.9007,26.8987,0.4351,89.6939,7.0079e+00,9.9990e+03,,,,,,,
CalCOFI,0701JD,042,418,24-Jan-2007 3:12:18 AM,23-Jan-2007 7:12:18 PM,33.82616,-118.63618,086.7 035.0,086.7,035.0,476.000,479.970,6.8938,6.8941,34.3141,34.3128,34.3117,34.3118,0.35083,0.39,0.44,0.0253,,,1.6381,37.59,37.302,26.8991,26.8972,0.4351,89.6946,6.9279e+00,9.9990e+03,,,,,,,
CalCOFI,0701JD,042,418,24-Jan-2007 3:12:19 AM,23-Jan-2007 7:12:19 PM,33.82616,-118.63618,086.7 035.0,086.7,035.0,475.000,478.960,6.8999,6.9006,34.3139,34.3126,34.3116,34.3117,0.35226,0.40,0.44,0.0257,,,1.6351,37.51,37.210,26.8981,26.8963,0.4341,89.7161,6.7192e+00,9.9990e+03,,,,,,,
CalCOFI,0701JD,042,418,24-Jan-2007 3:12:21 AM,23-Jan-2007 7:12:21 PM,33.82616,-118.63618,086.7 035.0,086.7,035.0,474.000,477.951,6.9052,6.9048,34.3136,34.3123,34.3114,34.3115,0.35269,0.40,0.44,0.0253,,,1.6319,37.41,37.112,26.8972,26.8955,0.4340,89.7188,6.4538e+00,9.9990e+03,,,,,,,
CalCOFI,0701JD,042,418,24-Jan-2007 3:12:22 AM,23-Jan-2007 7:12:22 PM,33.82616,-118.63618,086.7 035.0,086.7,035.0,473.000,476.941,6.9100,6.9101,34.3136,34.3123,34.3113,34.3114,0.35300,0.40,0.44,0.0255,,,1.6399,37.65,37.357,26.8965,26.8947,0.4347,89.7036,6.4987e+00,9.9990e+03,,,,,,,
CalCOFI,0701JD,042,418,24-Jan-2007 3:12:23 AM,23-Jan-2007 7:12:23 PM,33.82616,-118.63618,086.7 035.0,086.7,035.0,472.000,475.932,6.9181,6.9195,34.3137,34.3124,34.3112,34.3113,0.35462,0.40,0.44,0.0253,,,1.6411,37.68,37.394,26.8955,26.8933,0.4353,89.6891,6.5109e+00,9.9990e+03,,,,,,,
CalCOFI,0701JD,042,418,24-Jan-2007 3:12:24 AM,23-Jan-2007 7:12:24 PM,33.82616,-118.63618,086.7 035.0,086.7,035.0,471.000,474.922,6.9302,6.9323,34.3133,34.3120,34.3109,34.3110,0.35604,0.40,0.44,0.0253,,,1.5994,36.46,36.115,26.8935,26.8914,0.4361,89.6715,6.7716e+00,9.9990e+03,,,,,,,
CalCOFI,0701JD,042,418,24-Jan-2007 3:12:25 AM,23-Jan-2007 7:12:25 PM,33.82616,-118.63618,086.7 035.0,086.7,035.0,470.000,473.913,6.9411,6.9419,34.3131,34.3118,34.3108,34.3109,0.35832,0.40,0.45,0.0253,,,1.5987,36.44,36.094,26.8918,26.8899,0.4371,89.6486,6.0349e+00,9.9990e+03,,,,,,,
CalCOFI,0701JD,042,418,24-Jan-2007 3:12:25 AM,23-Jan-2007 7:12:25 PM,33.82616,-118.63618,086.7 035.0,086.7,035.0,469.000,472.903,6.9604,6.9596,34.3147,34.3134,34.3105,34.3106,0.36064,0.41,0.45,0.0249,,,1.6136,36.87,36.551,26.8905,26.8873,0.4379,89.6303,6.1444e+00,9.9990e+03,,,,,,,
CalCOFI,0701JD,042,418,24-Jan-2007 3:12:26 AM,23-Jan-2007 7:12:26 PM,33.82616,-118.63618,086.7 035.0,086.7,035.0,468.000,471.894,7.0083,7.0083,34.3112,34.3099,34.3090,34.3091,0.36215,0.41,0.45,0.0252,,,1.6390,37.62,37.330,26.8812,26.8794,0.4372,89.6477,7.1003e+00,9.9990e+03,,,,,,,
CalCOFI,0701JD,042,418,24-Jan-2007 3:12:27 AM,23-Jan-2007 7:12:27 PM,33.82616,-118.63618,086.7 035.0,086.7,035.0,467.000,470.884,7.0133,7.0134,34.3111,34.3098,34.3092,34.3093,0.36428,0.41,0.45,0.0249,,,1.5885,36.14,35.781,26.8804,26.8788,0.4375,89.6402,6.5873e+00,9.9990e+03,,,,,,,
CalCOFI,0701JD,042,418,24-Jan-2007 3:12:28 AM,23-Jan-2007 7:12:28 PM,33.82616,-118.63618,086.7 035.0,086.7,035.0,466.000,469.875,7.0178,7.0182,34.3111,34.3098,34.3092,34.3093,0.36620,0.41,0.46,0.0252,,,1.6258,37.23,36.925,26.8797,26.8782,0.4369,89.6525,6.3520e+00,9.9990e+03,,,,,,,
CalCOFI,0701JD,042,418,24-Jan-2007 3:12:29 AM,23-Jan-2007 7:12:29 PM,33.82616,-118.63618,086.7 035.0,086.7,035.0,465.000,468.865,7.0240,7.0240,34.3109,34.3096,34.3089,34.3090,0.36932,0.42,0.46,0.0254,,,1.6091,36.74,36.413,26.8787,26.8772,0.4359,89.6750,6.3282e+00,9.9990e+03,,,,,,,
CalCOFI,0701JD,042,418,24-Jan-2007 3:12:30 AM,23-Jan-2007 7:12:30 PM,33.82616,-118.63618,086.7 035.0,086.7,035.0,464.000,467.856,7.0383,7.0376,34.3108,34.3095,34.3082,34.3083,0.37284,0.42,0.46,0.0252,,,1.5921,36.24,35.891,26.8767,26.8747,0.4367,89.6574,6.6441e+00,9.9990e+03,,,,,,,
CalCOFI,0701JD,042,418,24-Jan-2007 3:12:31 AM,23-Jan-2007 7:12:31 PM,33.82616,-118.63618,086.7 035.0,086.7,035.0,463.000,466.846,7.0584,7.0584,34.3098,34.3085,34.3075,34.3076,0.37751,0.43,0.47,0.0253,,,1.5809,35.91,35.548,26.8731,26.8713,0.4312,89.7817,6.5769e+00,9.9990e+03,,,,,,,
CalCOFI,0701JD,042,418,24-Jan-2007 3:12:33 AM,23-Jan-2007 7:12:33 PM,33.82616,-118.63618,086.7 035.0,086.7,035.0,462.000,465.837,7.0819,7.0836,34.3091,34.3078,34.3065,34.3066,0.38288,0.43,0.48,0.0252,,,1.5927,36.26,35.909,26.8694,26.8670,0.4290,89.8319,6.2832e+00,9.9990e+03,,,,,,,
CalCOFI,0701JD,042,418,24-Jan-2007 3:12:34 AM,23-Jan-2007 7:12:34 PM,33.82616,-118.63618,086.7 035.0,086.7,035.0,461.000,464.828,7.0938,7.0945,34.3083,34.3070,34.3062,34.3063,0.38535,0.44,0.48,0.0251,,,1.6248,37.20,36.894,26.8671,26.8653,0.4274,89.8672,6.7781e+00,9.9990e+03,,,,,,,
CalCOFI,0701JD,042,418,24-Jan-2007 3:12:35 AM,23-Jan-2007 7:12:35 PM,33.82616,-118.63618,086.7 035.0,086.7,035.0,460.000,463.818,7.1075,7.1087,34.3076,34.3063,34.3056,34.3057,0.38763,0.44,0.48,0.0254,,,1.6185,37.02,36.701,26.8646,26.8628,0.4268,89.8799,6.4340e+00,9.9990e+03,,,,,,,
CalCOFI,0701JD,042,418,24-Jan-2007 3:12:36 AM,23-Jan-2007 7:12:36 PM,33.82616,-118.63618,086.7 035.0,086.7,035.0,459.000,462.809,7.1123,7.1129,34.3070,34.3057,34.3054,34.3055,0.39028,0.44,0.49,0.0252,,,1.6098,36.76,36.434,26.8635,26.8621,0.4283,89.8473,6.2940e+00,9.9990e+03,,,,,,,
CalCOFI,0701JD,042,418,24-Jan-2007 3:12:36 AM,23-Jan-2007 7:12:36 PM,33.82616,-118.63618,086.7 035.0,086.7,035.0,458.000,461.799,7.1190,7.1202,34.3074,34.3061,34.3055,34.3056,0.39264,0.44,0.49,0.0253,,,1.5923,36.25,35.897,26.8628,26.8612,0.4295,89.8196,6.0676e+00,9.9990e+03,,,,,,,
CalCOFI,0701JD,042,418,24-Jan-2007 3:12:37 AM,23-Jan-2007 7:12:37 PM,33.82616,-118.63618,086.7 035.0,086.7,035.0,457.000,460.790,7.1280,7.1285,34.3068,34.3055,34.3048,34.3049,0.39627,0.45,0.49,0.0252,,,1.5919,36.24,35.885,26.8610,26.8595,0.4282,89.8492,6.1242e+00,9.9990e+03,,,,,,,
CalCOFI,0701JD,042,418,24-Jan-2007 3:12:38 AM,23-Jan-2007 7:12:38 PM,33.82616,-118.63618,086.7 035.0,086.7,035.0,456.000,459.780,7.1327,7.1331,34.3064,34.3051,34.3047,34.3048,0.40016,0.45,0.50,0.0250,,,1.6061,36.65,36.321,26.8601,26.8587,0.4278,89.8589,6.9100e+00,9.9990e+03,,,,,,,
CalCOFI,0701JD,042,418,24-Jan-2007 3:12:39 AM,23-Jan-2007 7:12:39 PM,33.82616,-118.63618,086.7 035.0,086.7,035.0,455.000,458.771,7.1413,7.1418,34.3049,34.3036,34.3030,34.3031,0.40361,0.46,0.50,0.0249,,,1.6027,36.55,36.216,26.8577,26.8561,0.4253,89.9140,6.4430e+00,9.9990e+03,,,,,,,
CalCOFI,0701JD,042,418,24-Jan-2007 3:12:41 AM,23-Jan-2007 7:12:41 PM,33.82616,-118.63618,086.7 035.0,086.7,035.0,454.000,457.762,7.1491,7.1482,34.3039,34.3026,34.3022,34.3023,0.40815,0.46,0.51,0.0253,,,1.6188,37.03,36.710,26.8558,26.8546,0.4232,89.9623,6.7856e+00,9.9990e+03,,,,,,,
CalCOFI,0701JD,042,418,24-Jan-2007 3:12:42 AM,23-Jan-2007 7:12:42 PM,33.82616,-118.63618,086.7 035.0,086.7,035.0,453.000,456.752,7.1512,7.1509,34.3035,34.3022,34.3018,34.3019,0.41097,0.47,0.51,0.0252,,,1.6163,36.95,36.633,26.8552,26.8539,0.4224,89.9795,6.1365e+00,9.9990e+03,,,,,,,
CalCOFI,0701JD,042,418,24-Jan-2007 3:12:43 AM,23-Jan-2007 7:12:43 PM,33.82616,-118.63618,086.7 035.0,086.7,035.0,452.000,455.743,7.1563,7.1573,34.3031,34.3018,34.3014,34.3015,0.41265,0.47,0.51,0.0252,,,1.6040,36.59,36.256,26.8542,26.8527,0.4218,89.9939,6.5565e+00,9.9990e+03,,,,,,,
CalCOFI,0701JD,042,418,24-Jan-2007 3:12:44 AM,23-Jan-2007 7:12:44 PM,33.82616,-118.63618,086.7 035.0,086.7,035.0,451.000,454.733,7.1622,7.1633,34.3030,34.3017,34.3011,34.3012,0.41573,0.47,0.52,0.0260,,,1.5911,36.21,35.860,26.8532,26.8516,0.4217,89.9951,6.5449e+00,9.9990e+03,,,,,,,
CalCOFI,0701JD,042,418,24-Jan-2007 3:12:45 AM,23-Jan-2007 7:12:45 PM,33.82616,-118.63618,086.7 035.0,086.7,035.0,450.000,453.724,7.1689,7.1699,34.3031,34.3018,34.3012,34.3013,0.41778,0.48,0.52,0.0249,,,1.5864,36.08,35.716,26.8524,26.8508,0.4224,89.9789,6.3320e+00,9.9990e+03,,,,,,,
CalCOFI,0701JD,042,418,24-Jan-2007 3:12:45 AM,23-Jan-2007 7:12:45 PM,33.82616,-118.63618,086.7 035.0,086.7,035.0,449.000,452.715,7.1818,7.1817,34.3030,34.3017,34.3012,34.3013,0.41923,0.48,0.52,0.0251,,,1.5824,35.96,35.594,26.8505,26.8491,0.4240,89.9428,6.2382e+00,9.9990e+03,,,,,,,
CalCOFI,0701JD,042,418,24-Jan-2007 3:12:46 AM,23-Jan-2007 7:12:46 PM,33.82616,-118.63618,086.7 035.0,086.7,035.0,448.000,451.705,7.1953,7.1957,34.3024,34.3011,34.3007,34.3008,0.42090,0.48,0.52,0.0253,,,1.5744,35.72,35.348,26.8481,26.8468,0.4240,89.9434,6.2828e+00,9.9990e+03,,,,,,,
CalCOFI,0701JD,042,418,24-Jan-2007 3:12:47 AM,23-Jan-2007 7:12:47 PM,33.82616,-118.63618,086.7 035.0,086.7,035.0,447.000,450.696,7.2040,7.2046,34.3032,34.3019,34.3010,34.3011,0.42283,0.48,0.53,0.0268,,,1.5585,35.26,34.860,26.8476,26.8457,0.4241,89.9419,6.2606e+00,9.9990e+03,,,,,,,
CalCOFI,0701JD,042,418,24-Jan-2007 3:12:48 AM,23-Jan-2007 7:12:48 PM,33.82616,-118.63618,086.7 035.0,086.7,035.0,446.000,449.687,7.2250,7.2252,34.3034,34.3021,34.3014,34.3015,0.42555,0.48,0.53,0.0247,,,1.5713,35.63,35.253,26.8448,26.8432,0.4262,89.8951,6.1422e+00,9.9990e+03,,,,,,,
CalCOFI,0701JD,042,418,24-Jan-2007 3:12:49 AM,23-Jan-2007 7:12:49 PM,33.82616,-118.63618,086.7 035.0,086.7,035.0,445.000,448.677,7.2335,7.2333,34.3035,34.3022,34.3015,34.3016,0.42916,0.49,0.53,0.0260,,,1.5742,35.72,35.342,26.8437,26.8421,0.4267,89.8816,6.6424e+00,9.9990e+03,,,,,,,
CalCOFI,0701JD,042,418,24-Jan-2007 3:12:50 AM,23-Jan-2007 7:12:50 PM,33.82616,-118.63618,086.7 035.0,086.7,035.0,444.000,447.668,7.2569,7.2569,34.3038,34.3025,34.3016,34.3017,0.43307,0.49,0.54,0.0247,,,1.6098,36.76,36.434,26.8406,26.8389,0.4302,89.8031,6.4896e+00,9.9990e+03,,,,,,,
CalCOFI,0701JD,042,418,24-Jan-2007 3:12:51 AM,23-Jan-2007 7:12:51 PM,33.82616,-118.63618,086.7 035.0,086.7,035.0,443.000,446.659,7.2870,7.2871,34.3023,34.3010,34.3001,34.3002,0.43680,0.50,0.54,0.0256,,,1.6308,37.38,37.078,26.8352,26.8335,0.4286,89.8398,6.3434e+00,9.9990e+03,,,,,,,
CalCOFI,0701JD,042,418,24-Jan-2007 3:12:52 AM,23-Jan-2007 7:12:52 PM,33.82616,-118.63618,086.7 035.0,086.7,035.0,442.000,445.649,7.3029,7.3031,34.3014,34.3001,34.2994,34.2995,0.44054,0.50,0.55,0.0250,,,1.6126,36.85,36.520,26.8323,26.8306,0.4287,89.8368,6.3767e+00,9.9990e+03,,,,,,,
CalCOFI,0701JD,042,418,24-Jan-2007 3:12:53 AM,23-Jan-2007 7:12:53 PM,33.82616,-118.63618,086.7 035.0,086.7,035.0,441.000,444.640,7.3175,7.3186,34.3015,34.3002,34.2997,34.2998,0.44262,0.51,0.55,0.0257,,,1.5888,36.15,35.790,26.8303,26.8287,0.4298,89.8123,6.4983e+00,9.9990e+03,,,,,,,
CalCOFI,0701JD,042,418,24-Jan-2007 3:12:54 AM,23-Jan-2007 7:12:54 PM,33.82616,-118.63618,086.7 035.0,086.7,035.0,440.000,443.631,7.3265,7.3280,34.3017,34.3004,34.3000,34.3001,0.44598,0.51,0.55,0.0254,,,1.5872,36.10,35.741,26.8292,26.8276,0.4312,89.7817,6.2623e+00,9.9990e+03,,,,,,,
CalCOFI,0701JD,042,418,24-Jan-2007 3:12:56 AM,23-Jan-2007 7:12:56 PM,33.82616,-118.63618,086.7 035.0,086.7,035.0,439.000,442.621,7.3427,7.3435,34.3017,34.3004,34.3000,34.3001,0.44894,0.51,0.56,0.0255,,,1.5743,35.72,35.345,26.8268,26.8254,0.4309,89.7890,6.3940e+00,9.9990e+03,,,,,,,
CalCOFI,0701JD,042,418,24-Jan-2007 3:12:57 AM,23-Jan-2007 7:12:57 PM,33.82616,-118.63618,086.7 035.0,086.7,035.0,438.000,441.612,7.3541,7.3554,34.3014,34.3001,34.2995,34.2996,0.45285,0.52,0.56,0.0251,,,1.5877,36.11,35.756,26.8250,26.8234,0.4313,89.7792,6.3172e+00,9.9990e+03,,,,,,,
CalCOFI,0701JD,042,418,24-Jan-2007 3:12:59 AM,23-Jan-2007 7:12:59 PM,33.82616,-118.63618,086.7 035.0,086.7,035.0,437.000,440.603,7.3681,7.3594,34.3019,34.3006,34.2998,34.2999,0.45821,0.52,0.57,0.0248,,,1.5859,36.06,35.701,26.8234,26.8230,0.4307,89.7934,6.6980e+00,9.9990e+03,437,7.40 ,34.296,  .54,,,35.4
CalCOFI,0701JD,042,418,24-Jan-2007 3:13:26 AM,23-Jan-2007 7:13:26 PM,33.82616,-118.63620,086.7 035.0,086.7,035.0,436.000,439.593,7.3923,7.3909,34.2983,34.2970,34.2970,34.2971,0.47472,0.54,0.59,0.0253,,,1.5818,35.94,35.575,26.8172,26.8164,0.4290,89.8319,6.4570e+00,9.9990e+03,,,,,,,
CalCOFI,0701JD,042,418,24-Jan-2007 3:15:32 AM,23-Jan-2007 7:15:32 PM,33.82616,-118.63635,086.7 035.0,086.7,035.0,435.000,438.584,7.4024,7.4027,34.2962,34.2949,34.2953,34.2954,0.48298,0.55,0.60,0.0248,,,1.5966,36.38,36.029,26.8141,26.8133,0.4281,89.8504,6.6484e+00,9.9990e+03,,,,,,,
CalCOFI,0701JD,042,418,24-Jan-2007 3:15:26 AM,23-Jan-2007 7:15:26 PM,33.82616,-118.63634,086.7 035.0,086.7,035.0,434.000,437.575,7.4041,7.4043,34.2956,34.2943,34.2947,34.2948,0.48681,0.56,0.60,0.0251,,,1.5907,36.20,35.848,26.8134,26.8126,0.4278,89.8572,6.7751e+00,9.9990e+03,,,,,,,
CalCOFI,0701JD,042,418,24-Jan-2007 3:15:27 AM,23-Jan-2007 7:15:27 PM,33.82616,-118.63634,086.7 035.0,086.7,035.0,433.000,436.565,7.4110,7.4111,34.2938,34.2925,34.2928,34.2929,0.49218,0.57,0.61,0.0251,,,1.5456,34.88,34.465,26.8109,26.8101,0.4269,89.8781,6.9832e+00,9.9990e+03,,,,,,,
CalCOFI,0701JD,042,418,24-Jan-2007 3:15:29 AM,23-Jan-2007 7:15:29 PM,33.82616,-118.63634,086.7 035.0,086.7,035.0,432.000,435.556,7.4239,7.4237,34.2925,34.2912,34.2915,34.2916,0.49787,0.57,0.62,0.0247,,,1.5845,36.02,35.658,26.8081,26.8073,0.4274,89.8667,6.7134e+00,9.9990e+03,,,,,,,
CalCOFI,0701JD,042,418,24-Jan-2007 3:15:32 AM,23-Jan-2007 7:15:32 PM,33.82616,-118.63636,086.7 035.0,086.7,035.0,431.000,434.547,7.4370,7.4353,34.2923,34.2910,34.2916,34.2917,0.50176,0.58,0.62,0.0249,,,1.5640,35.42,35.029,26.8061,26.8057,0.4261,89.8960,6.6399e+00,9.9990e+03,,,,,,,